TAP238 LEMG-LPPR

Flight info

Callsign TAP238
Flight time 0h 34m
Altitude 38000
Route SVL M744 ROSAL DCT LASIB DCT ABLEG
Aircraft A20N/M-SDE2E3FGHIRWXY/LB1

Departure

Time 2026-05-06 17:12
Airport Málaga-Costa del Sol Airport (LEMG)

Arrival

Time 2026-05-06 17:47
Airport Francisco de Sá Carneiro Airport (LPPR)
Time Latitude Longitude Altitude Speed Heading
2026-05-06 16:54 36.67890 -4.49496 42 ft 0 kts 214°
2026-05-06 17:05 36.67898 -4.49490 40 ft 4 kts 216°
2026-05-06 17:06 36.67918 -4.49468 41 ft 4 kts 234°
2026-05-06 17:06 36.67927 -4.49440 40 ft 4 kts 288°
2026-05-06 17:06 36.67922 -4.49427 29 ft 1 kts 311°
2026-05-06 17:06 36.67921 -4.49426 28 ft 0 kts 311°
2026-05-06 17:08 36.67922 -4.49428 41 ft 1 kts 311°
2026-05-06 17:08 36.67966 -4.49492 41 ft 11 kts 310°
2026-05-06 17:09 36.68030 -4.49570 41 ft 11 kts 349°
2026-05-06 17:09 36.68070 -4.49547 41 ft 10 kts 32°
2026-05-06 17:09 36.68141 -4.49473 42 ft 18 kts 41°
2026-05-06 17:09 36.68258 -4.49350 38 ft 25 kts 24°
2026-05-06 17:10 36.68348 -4.49409 39 ft 12 kts 291°
2026-05-06 17:10 36.68397 -4.49543 40 ft 24 kts 298°
2026-05-06 17:10 36.68539 -4.49874 42 ft 41 kts 298°
2026-05-06 17:10 36.68638 -4.50100 44 ft 47 kts 299°
2026-05-06 17:11 36.68797 -4.50495 45 ft 54 kts 296°
2026-05-06 17:11 36.68929 -4.50675 48 ft 17 kts 24°
2026-05-06 17:11 36.68962 -4.50572 49 ft 13 kts 79°
2026-05-06 17:11 36.68964 -4.50459 51 ft 14 kts 100°
2026-05-06 17:12 36.68901 -4.50293 51 ft 43 kts 118°
2026-05-06 17:12 36.68645 -4.49693 46 ft 111 kts 117°
2026-05-06 17:12 36.68209 -4.48647 92 ft 154 kts 117°
2026-05-06 17:12 36.67737 -4.47514 745 ft 151 kts 121°
2026-05-06 17:13 36.67114 -4.46395 1266 ft 162 kts 131°
2026-05-06 17:13 36.66189 -4.45667 1965 ft 160 kts 173°
2026-05-06 17:13 36.65081 -4.45927 2376 ft 176 kts 213°
2026-05-06 17:13 36.64299 -4.47190 2726 ft 199 kts 251°
2026-05-06 17:14 36.64292 -4.48994 3104 ft 226 kts 288°
2026-05-06 17:14 36.65173 -4.50693 3634 ft 249 kts 317°
2026-05-06 17:14 36.67067 -4.52697 4919 ft 264 kts 320°
2026-05-06 17:14 36.69674 -4.55978 7217 ft 269 kts 311°
2026-05-06 17:15 36.72069 -4.59695 9335 ft 280 kts 307°
2026-05-06 17:15 36.74523 -4.63700 10784 ft 312 kts 306°
2026-05-06 17:15 36.77321 -4.68262 12063 ft 341 kts 306°
2026-05-06 17:15 36.80263 -4.72925 13800 ft 353 kts 313°
2026-05-06 17:16 36.84260 -4.76622 15483 ft 363 kts 323°
2026-05-06 17:16 36.88441 -4.80283 17135 ft 371 kts 322°
2026-05-06 17:16 36.92708 -4.84048 18638 ft 380 kts 322°
2026-05-06 17:16 36.97104 -4.87851 20047 ft 387 kts 322°
2026-05-06 17:17 37.01569 -4.91702 21427 ft 394 kts 321°
2026-05-06 17:17 37.06134 -4.95662 22801 ft 403 kts 321°
2026-05-06 17:17 37.10775 -4.99699 24209 ft 410 kts 320°
2026-05-06 17:17 37.15434 -5.03757 25299 ft 416 kts 320°
2026-05-06 17:18 37.20234 -5.07947 26295 ft 423 kts 319°
2026-05-06 17:18 37.25099 -5.12201 27292 ft 430 kts 319°
2026-05-06 17:18 37.32879 -5.19017 28678 ft 439 kts 318°
2026-05-06 17:18 37.37922 -5.23458 29529 ft 444 kts 318°
2026-05-06 17:19 37.43011 -5.27939 30284 ft 449 kts 318°
2026-05-06 17:19 37.48155 -5.32471 30982 ft 453 kts 318°
2026-05-06 17:19 37.53314 -5.37023 31590 ft 450 kts 319°
2026-05-06 17:19 37.59962 -5.42902 31864 ft 454 kts 319°
2026-05-06 17:20 37.65172 -5.47526 31857 ft 465 kts 319°
2026-05-06 17:20 37.75677 -5.56857 31857 ft 465 kts 319°
2026-05-06 17:21 37.86236 -5.66277 31856 ft 464 kts 319°
2026-05-06 17:21 37.96765 -5.75706 31854 ft 463 kts 320°
2026-05-06 17:22 38.07204 -5.85081 31857 ft 462 kts 320°
2026-05-06 17:22 38.17683 -5.94529 31852 ft 462 kts 320°
2026-05-06 17:23 38.28151 -6.03997 31854 ft 462 kts 320°
2026-05-06 17:23 38.38606 -6.13490 31859 ft 461 kts 320°
2026-05-06 17:24 38.49034 -6.22988 31869 ft 461 kts 320°
2026-05-06 17:24 38.59378 -6.32447 31857 ft 460 kts 320°
2026-05-06 17:25 38.69797 -6.42008 31856 ft 460 kts 320°
2026-05-06 17:25 38.80187 -6.51578 31857 ft 459 kts 320°
2026-05-06 17:26 38.90548 -6.61154 31876 ft 459 kts 320°
2026-05-06 17:26 39.00899 -6.70758 31879 ft 459 kts 320°
2026-05-06 17:27 39.11169 -6.80321 31873 ft 459 kts 320°
2026-05-06 17:27 39.21520 -6.89995 31864 ft 460 kts 320°
2026-05-06 17:28 39.31870 -6.99704 31867 ft 460 kts 320°
2026-05-06 17:28 39.42210 -7.09442 31865 ft 460 kts 320°
2026-05-06 17:29 39.52503 -7.19171 31865 ft 460 kts 320°
2026-05-06 17:29 39.62769 -7.28910 31864 ft 461 kts 320°
2026-05-06 17:30 39.72954 -7.38610 31868 ft 461 kts 320°
2026-05-06 17:30 39.83292 -7.48493 31876 ft 462 kts 320°
2026-05-06 17:31 39.93629 -7.58412 31878 ft 462 kts 320°
2026-05-06 17:31 40.03966 -7.68368 31891 ft 466 kts 319°
2026-05-06 17:32 40.14392 -7.78450 31902 ft 467 kts 319°
2026-05-06 17:32 40.24813 -7.88571 31904 ft 467 kts 320°
2026-05-06 17:33 40.35236 -7.98727 31910 ft 467 kts 319°
2026-05-06 17:33 40.45657 -8.08924 31920 ft 467 kts 319°
2026-05-06 17:34 40.55994 -8.19080 31917 ft 467 kts 319°
2026-05-06 17:34 40.66380 -8.29324 31928 ft 468 kts 319°
2026-05-06 17:35 40.76813 -8.39655 31941 ft 469 kts 319°
2026-05-06 17:35 40.87267 -8.50048 31957 ft 470 kts 320°
2026-05-06 17:36 40.97883 -8.59961 31960 ft 475 kts 331°
2026-05-06 17:36 41.04208 -8.62693 31967 ft 483 kts 346°
2026-05-06 17:36 41.17372 -8.66163 31971 ft 483 kts 346°
2026-05-06 17:37 41.30557 -8.69643 31962 ft 483 kts 346°
2026-05-06 17:37 41.43739 -8.73121 31963 ft 484 kts 346°
2026-05-06 17:38 41.53355 -8.77724 31955 ft 457 kts 320°
2026-05-06 17:38 41.57256 -8.83716 31967 ft 413 kts 292°
2026-05-06 17:38 41.58400 -8.91058 31878 ft 394 kts 264°
2026-05-06 17:39 41.56702 -8.97910 30038 ft 399 kts 234°
2026-05-06 17:39 41.52447 -9.02880 27162 ft 422 kts 206°
2026-05-06 17:39 41.46888 -9.04372 26492 ft 400 kts 178°
2026-05-06 17:39 41.41299 -9.03313 24449 ft 412 kts 174°
2026-05-06 17:40 41.35479 -9.02344 21698 ft 430 kts 174°
2026-05-06 17:40 41.29534 -9.01451 19221 ft 440 kts 174°
2026-05-06 17:40 41.23574 -9.00572 17539 ft 425 kts 174°
2026-05-06 17:40 41.17861 -8.99175 14968 ft 413 kts 160°
2026-05-06 17:41 41.13167 -8.95131 13136 ft 388 kts 137°
2026-05-06 17:41 41.10799 -8.90982 12734 ft 350 kts 125°
2026-05-06 17:41 41.09479 -8.88327 12251 ft 340 kts 122°
2026-05-06 17:41 41.08358 -8.85592 11458 ft 336 kts 117°
2026-05-06 17:42 41.07344 -8.82788 10517 ft 336 kts 116°
2026-05-06 17:42 41.06340 -8.80007 9571 ft 335 kts 116°
2026-05-06 17:42 41.05465 -8.77140 8468 ft 336 kts 110°
2026-05-06 17:42 41.04766 -8.74206 7219 ft 342 kts 103°
2026-05-06 17:43 41.04668 -8.71049 5986 ft 348 kts 81°
2026-05-06 17:43 41.05463 -8.68038 4869 ft 346 kts 56°
2026-05-06 17:43 41.07037 -8.65848 4692 ft 313 kts 33°
2026-05-06 17:43 41.08958 -8.64868 4303 ft 288 kts
2026-05-06 17:44 41.10940 -8.64929 3303 ft 287 kts 350°
2026-05-06 17:44 41.12923 -8.65404 2232 ft 290 kts 348°
2026-05-06 17:44 41.14873 -8.65882 1488 ft 280 kts 348°
2026-05-06 17:44 41.16749 -8.66299 1104 ft 259 kts 350°
2026-05-06 17:45 41.18428 -8.66658 954 ft 228 kts 350°
2026-05-06 17:45 41.19863 -8.66951 715 ft 195 kts 349°
2026-05-06 17:45 41.21066 -8.67164 663 ft 147 kts 349°
2026-05-06 17:45 41.21960 -8.67386 517 ft 121 kts 346°
2026-05-06 17:46 41.22716 -8.67580 388 ft 105 kts 346°
2026-05-06 17:46 41.23459 -8.67775 279 ft 112 kts 346°
2026-05-06 17:46 41.24194 -8.67968 216 ft 100 kts 347°
2026-05-06 17:46 41.24713 -8.68111 207 ft 51 kts 349°
2026-05-06 17:47 41.24755 -8.68122 200 ft 49 kts 349°